GFSMW_850_dewp_183.txt.gz
Dewpoint
4 2 1 0 -1 -2 -6 -11 -11 -9 -8 -8 -8 -8 -10 -14 -15 -16 -19 -19 -19 -19 -19 -19 -19 -19 -20 -21 -21 -22 -22 -22 -23 -23 -24 -21 -19 -10 -11 -17 -14 -18 -18
1 1 0 -1 -2 -3 -4 -8 -10 -10 -8 -7 -7 -8 -12 -13 -13 -17 -18 -18 -18 -18 -18 -18 -18 -19 -19 -20 -20 -21 -20 -20 -20 -18 -15 -15 -15 -16 -16 -14 -16 -17 -19
0 -0 -1 -1 -2 -3 -4 -7 -9 -10 -8 -5 -5 -8 -12 -12 -13 -15 -16 -16 -16 -17 -17 -17 -18 -18 -19 -19 -19 -20 -20 -19 -18 -16 -13 -8 -6 -7 -15 -17 -17 -18 -19
0 0 -1 -2 -2 -3 -3 -5 -9 -10 -8 -5 -6 -11 -13 -12 -12 -15 -15 -15 -15 -16 -16 -16 -17 -18 -18 -18 -19 -18 -18 -18 -17 -16 -14 -9 -7 -6 -6 -10 -20 -19 -19
0 -0 -1 -2 -3 -3 -3 -4 -8 -9 -8 -7 -9 -11 -9 -10 -14 -14 -14 -14 -15 -16 -15 -15 -16 -17 -17 -18 -18 -19 -18 -18 -15 -14 -16 -14 -12 -10 -8 -7 -10 -24 -22
-0 -1 -2 -2 -3 -3 -4 -5 -8 -10 -8 -9 -9 -10 -10 -13 -14 -14 -13 -13 -14 -14 -14 -15 -15 -16 -16 -17 -18 -19 -18 -17 -17 -16 -17 -16 -12 -10 -9 -8 -9 -9 -20
-1 -2 -2 -2 -3 -3 -4 -5 -8 -9 -9 -9 -9 -10 -11 -14 -13 -13 -13 -14 -14 -13 -14 -15 -14 -15 -16 -18 -21 -19 -17 -18 -18 -19 -20 -19 -16 -13 -11 -9 -9 -9 -16
-1 -2 -2 -2 -3 -3 -4 -5 -6 -8 -9 -10 -11 -11 -13 -13 -12 -13 -13 -13 -13 -13 -14 -14 -13 -14 -17 -22 -23 -19 -17 -18 -19 -20 -23 -22 -17 -14 -12 -10 -9 -10 -10
-1 -2 -2 -2 -3 -3 -3 -4 -6 -7 -9 -10 -12 -13 -13 -12 -12 -13 -13 -13 -13 -14 -14 -13 -13 -15 -19 -21 -20 -19 -20 -19 -19 -23 -27 -23 -19 -15 -12 -10 -9 -11 -9
-1 -2 -2 -2 -3 -3 -3 -3 -5 -6 -7 -9 -11 -12 -12 -12 -12 -12 -13 -13 -13 -13 -13 -13 -14 -16 -18 -18 -19 -19 -18 -18 -21 -25 -28 -25 -20 -16 -14 -9 -10 -14 -10
-1 -2 -2 -2 -2 -3 -3 -3 -4 -6 -7 -8 -10 -11 -11 -11 -11 -12 -12 -12 -13 -13 -12 -13 -14 -15 -17 -17 -18 -18 -16 -18 -22 -25 -27 -25 -22 -20 -18 -17 -16 -12 -10
-2 -2 -2 -2 -2 -3 -3 -3 -4 -5 -6 -7 -8 -10 -10 -10 -11 -12 -12 -12 -12 -12 -13 -13 -13 -14 -14 -15 -17 -17 -16 -19 -22 -24 -25 -24 -22 -21 -20 -18 -16 -13 -10
-2 -2 -1 -2 -2 -3 -3 -3 -3 -4 -5 -6 -6 -8 -9 -10 -11 -12 -12 -12 -12 -12 -13 -12 -13 -13 -12 -14 -16 -16 -17 -18 -19 -22 -24 -23 -22 -21 -17 -16 -14 -11 -12
-1 -1 -1 -1 -2 -2 -2 -3 -3 -4 -5 -5 -6 -7 -9 -10 -11 -11 -12 -12 -12 -12 -12 -12 -13 -12 -12 -13 -15 -16 -17 -17 -19 -23 -24 -23 -22 -17 -14 -13 -13 -15 -15
-0 -1 -1 -1 -2 -2 -2 -3 -3 -4 -4 -5 -6 -6 -8 -10 -10 -11 -12 -12 -12 -13 -12 -12 -11 -11 -12 -13 -14 -16 -16 -16 -20 -24 -24 -23 -22 -19 -15 -16 -15 -13 -13
-0 -0 -1 -1 -1 -2 -2 -2 -3 -4 -4 -5 -5 -6 -8 -10 -10 -11 -11 -12 -12 -13 -12 -11 -11 -12 -12 -12 -13 -15 -16 -17 -23 -25 -24 -24 -24 -22 -20 -17 -14 -13 -14
-1 0 -0 -1 -1 -2 -2 -2 -3 -4 -5 -5 -5 -6 -8 -7 -9 -10 -11 -11 -12 -12 -12 -11 -11 -12 -12 -12 -13 -15 -17 -20 -25 -25 -23 -24 -22 -20 -18 -15 -14 -15 -17
-2 0 0 -1 -1 -1 -2 -2 -3 -4 -4 -5 -5 -4 -4 -4 -9 -10 -11 -11 -12 -13 -12 -12 -12 -12 -13 -12 -12 -15 -18 -23 -26 -25 -24 -23 -22 -18 -14 -14 -15 -16 -17
-4 -2 -1 -0 -1 -1 -2 -3 -4 -4 -4 -5 -3 -3 -3 -8 -10 -11 -11 -12 -13 -13 -13 -13 -12 -12 -12 -12 -13 -17 -22 -26 -25 -23 -23 -21 -19 -15 -14 -14 -15 -17 -17
-4 -2 -0 -0 -1 -1 -2 -3 -4 -4 -5 -3 -1 -2 -5 -10 -10 -11 -12 -12 -13 -13 -13 -12 -12 -12 -13 -15 -19 -23 -25 -23 -20 -18 -21 -20 -16 -15 -15 -15 -16 -17 -16
-3 -1 0 -0 -1 -2 -2 -3 -4 -3 -1 -0 -2 -5 -7 -9 -11 -12 -13 -13 -14 -13 -13 -13 -12 -13 -17 -23 -24 -26 -24 -18 -15 -17 -19 -19 -16 -16 -16 -16 -18 -16 -16
-1 -0 -0 -1 -2 -2 -3 -3 -3 -1 -0 -2 -3 -6 -9 -10 -11 -13 -14 -13 -13 -13 -13 -13 -14 -18 -24 -25 -24 -24 -20 -14 -16 -17 -18 -18 -17 -18 -19 -21 -17 -17 -20
-0 -1 -1 -2 -2 -2 -3 -2 -1 -1 -2 -3 -7 -10 -10 -11 -13 -15 -15 -15 -14 -13 -14 -16 -20 -23 -23 -22 -21 -20 -17 -15 -16 -17 -18 -19 -22 -24 -25 -24 -19 -19 -21
-1 -2 -2 -2 -3 -2 -2 -1 -1 -2 -3 -5 -9 -10 -11 -13 -14 -15 -15 -15 -14 -15 -18 -21 -22 -21 -20 -20 -19 -18 -16 -15 -16 -18 -21 -23 -25 -27 -26 -25 -23 -21 -21
-3 -3 -2 -3 -3 -3 -1 -1 -2 -3 -5 -10 -10 -11 -12 -14 -15 -15 -16 -15 -16 -19 -20 -21 -19 -18 -18 -17 -15 -15 -15 -16 -16 -18 -22 -24 -26 -25 -24 -24 -23 -22 -22
-5 -4 -4 -3 -1 -1 -2 -3 -3 -5 -9 -10 -12 -13 -13 -15 -16 -18 -17 -15 -16 -17 -17 -16 -15 -15 -15 -15 -15 -15 -15 -16 -18 -21 -21 -22 -22 -22 -22 -22 -22 -22 -22

GFSMW_850_dewp_186.txt.gz
Dewpoint
9 9 8 6 4 2 -1 -4 -4 -5 -7 -7 -8 -9 -9 -11 -14 -15 -17 -19 -19 -19 -19 -19 -20 -20 -20 -21 -20 -21 -21 -22 -23 -24 -22 -22 -20 -15 -22 -16 -19 -19 -20
7 7 7 5 3 1 -2 -5 -6 -7 -7 -9 -10 -9 -9 -11 -13 -15 -17 -17 -17 -18 -18 -19 -19 -19 -20 -20 -20 -20 -22 -23 -24 -25 -24 -21 -18 -21 -19 -22 -19 -22 -24
6 6 7 6 2 0 -1 -5 -7 -7 -8 -8 -7 -7 -7 -10 -12 -14 -16 -16 -16 -17 -18 -18 -18 -19 -19 -19 -20 -21 -22 -23 -24 -26 -24 -17 -16 -22 -28 -21 -28 -27 -27
4 5 6 5 2 0 -1 -4 -7 -8 -8 -7 -7 -7 -9 -11 -12 -14 -15 -16 -15 -16 -16 -17 -17 -18 -19 -19 -20 -21 -23 -25 -27 -25 -23 -21 -18 -14 -14 -33 -33 -33 -29
3 3 4 5 2 0 -1 -3 -5 -6 -6 -6 -6 -6 -7 -11 -12 -14 -15 -15 -14 -15 -16 -16 -17 -18 -18 -19 -20 -22 -25 -27 -27 -27 -26 -25 -22 -15 -15 -12 -30 -33 -26
2 2 2 2 1 -0 -1 -3 -4 -6 -6 -6 -5 -5 -7 -10 -11 -14 -14 -14 -14 -15 -15 -16 -17 -17 -18 -19 -22 -25 -26 -25 -25 -25 -26 -28 -26 -23 -19 -15 -18 -19 -21
1 1 1 1 1 -0 -2 -3 -4 -6 -6 -6 -5 -5 -8 -10 -11 -14 -14 -14 -14 -14 -15 -16 -16 -17 -17 -20 -24 -26 -24 -24 -25 -25 -27 -27 -24 -21 -17 -14 -10 -9 -19
-0 0 0 0 0 -0 -2 -3 -3 -5 -6 -6 -6 -8 -9 -9 -12 -14 -13 -13 -13 -13 -14 -15 -15 -16 -18 -22 -24 -24 -24 -24 -23 -26 -30 -30 -26 -21 -15 -12 -9 -10 -12
-2 -1 -1 -1 -0 -0 -2 -2 -3 -5 -7 -7 -7 -8 -8 -8 -13 -13 -11 -12 -13 -13 -14 -14 -15 -16 -19 -22 -22 -22 -22 -23 -24 -28 -31 -32 -25 -21 -17 -15 -12 -11 -11
-1 -1 -1 -1 -1 -1 -2 -2 -3 -5 -7 -8 -7 -8 -9 -11 -13 -12 -12 -12 -12 -12 -13 -13 -14 -16 -19 -21 -21 -22 -22 -22 -25 -30 -33 -30 -26 -25 -24 -24 -22 -19 -14
-1 -1 -2 -2 -1 -1 -2 -2 -3 -5 -7 -8 -8 -9 -10 -12 -12 -11 -12 -12 -11 -12 -13 -13 -15 -17 -19 -20 -20 -21 -22 -22 -27 -31 -30 -29 -28 -28 -28 -26 -23 -21 -16
-1 -1 -2 -2 -2 -2 -2 -2 -3 -4 -6 -7 -9 -10 -11 -11 -11 -11 -12 -12 -12 -12 -12 -13 -15 -16 -18 -18 -19 -21 -21 -25 -29 -29 -30 -30 -29 -29 -27 -27 -24 -21 -18
-1 -1 -2 -2 -2 -2 -2 -2 -3 -4 -5 -6 -8 -10 -11 -11 -11 -11 -11 -11 -11 -12 -12 -13 -14 -16 -17 -17 -19 -19 -22 -25 -26 -28 -29 -30 -29 -28 -26 -26 -23 -20 -20
-1 -1 -1 -2 -2 -2 -2 -2 -3 -4 -5 -6 -7 -8 -9 -10 -10 -10 -10 -11 -11 -11 -12 -14 -15 -16 -15 -16 -17 -19 -22 -22 -24 -28 -30 -29 -28 -27 -25 -23 -20 -17 -15
-1 -1 -1 -1 -1 -2 -2 -2 -3 -3 -4 -5 -6 -7 -7 -9 -9 -9 -9 -10 -11 -12 -13 -13 -14 -14 -14 -15 -17 -17 -19 -21 -26 -28 -30 -29 -28 -27 -25 -20 -17 -13 -13
-2 -1 -1 -1 -1 -1 -2 -2 -3 -3 -4 -4 -5 -5 -6 -8 -8 -8 -9 -10 -11 -12 -13 -13 -13 -13 -14 -14 -16 -15 -18 -21 -26 -29 -29 -28 -29 -28 -24 -18 -16 -14 -15
-2 -2 -2 -1 -1 -1 -1 -2 -2 -3 -3 -4 -4 -4 -6 -7 -7 -7 -7 -5 -11 -11 -13 -12 -13 -13 -13 -14 -14 -15 -17 -21 -26 -28 -27 -29 -28 -25 -21 -17 -14 -15 -18
-2 -3 -2 -2 -1 -0 -1 -1 -2 -2 -3 -3 -3 -4 -6 -7 -6 -4 -5 -10 -10 -11 -13 -13 -12 -13 -13 -12 -13 -14 -17 -24 -27 -27 -25 -27 -28 -24 -17 -14 -15 -18 -20
-2 -2 -2 -4 -2 -0 -1 -1 -2 -2 -3 -3 -4 -4 -5 -5 -3 -4 -6 -8 -10 -11 -12 -12 -13 -13 -12 -12 -13 -14 -21 -25 -26 -25 -23 -25 -25 -24 -15 -15 -17 -21 -20
-3 -4 -3 -3 -2 -0 -1 -1 -1 -2 -3 -3 -3 -4 -4 -2 -3 -5 -7 -8 -10 -12 -12 -12 -12 -12 -12 -12 -14 -20 -25 -24 -26 -23 -23 -24 -22 -15 -15 -16 -21 -22 -17
-2 -2 -4 -1 -0 -1 -1 -1 -2 -3 -2 -2 -3 -3 -1 -3 -5 -7 -7 -9 -11 -12 -12 -12 -12 -12 -13 -14 -20 -24 -25 -24 -21 -19 -20 -21 -22 -20 -18 -18 -25 -18 -17
-1 -1 -0 -0 -1 -1 -2 -2 -2 -2 -3 -3 -2 -1 -3 -4 -7 -7 -10 -11 -12 -12 -12 -12 -12 -13 -15 -21 -23 -24 -24 -17 -18 -18 -18 -19 -22 -25 -27 -27 -24 -18 -23
-1 -1 -1 -1 -2 -2 -3 -2 -3 -3 -3 -2 -2 -3 -4 -6 -8 -10 -12 -13 -13 -12 -12 -13 -13 -16 -21 -22 -21 -21 -21 -18 -18 -18 -18 -20 -25 -26 -27 -27 -27 -26 -26
-2 -1 -1 -2 -2 -3 -3 -3 -3 -3 -1 -2 -3 -4 -6 -9 -11 -12 -13 -14 -14 -13 -13 -14 -16 -20 -21 -20 -20 -19 -19 -16 -17 -18 -20 -23 -25 -26 -27 -27 -26 -25 -24
-2 -2 -2 -2 -2 -2 -2 -3 -2 -1 -2 -3 -3 -7 -10 -11 -12 -13 -14 -14 -13 -13 -15 -18 -20 -20 -19 -19 -18 -15 -16 -16 -16 -17 -21 -23 -24 -25 -26 -26 -26 -25 -24
-3 -3 -3 -2 -2 -2 -2 -2 -2 -2 -2 -3 -9 -10 -11 -12 -13 -14 -14 -13 -13 -15 -17 -18 -18 -17 -16 -16 -15 -15 -15 -16 -17 -20 -22 -22 -22 -22 -22 -23 -23 -25 -24

GFSMW_850_dewp_192.txt.gz
Dewpoint
6 10 10 11 11 11 10 11 11 11 9 7 3 -4 -8 -10 -11 -13 -14 -16 -17 -18 -19 -20 -21 -21 -22 -22 -22 -23 -23 -24 -23 -5 -3 -6 -10 -15 -13 -11 -12 -15 -17
6 8 9 10 10 10 10 12 12 11 10 6 3 -1 -6 -9 -10 -12 -14 -16 -17 -18 -18 -19 -20 -20 -21 -21 -21 -22 -23 -25 -26 -7 -7 -6 -4 -6 -8 -11 -17 -29 -17
4 7 8 8 9 10 10 11 11 11 9 5 3 -0 -5 -6 -7 -11 -14 -16 -17 -17 -18 -18 -18 -19 -19 -20 -21 -22 -23 -22 -26 -28 -10 -10 -11 -10 -6 -11 -12 -23 -16
2 4 7 7 8 9 10 9 9 10 8 6 4 2 -2 -5 -7 -10 -12 -15 -16 -16 -17 -17 -18 -18 -18 -19 -20 -22 -23 -23 -21 -28 -31 -30 -18 -12 -10 -8 -9 -12 -11
1 2 5 6 7 8 9 8 8 7 7 6 4 2 -1 -2 -6 -7 -10 -14 -15 -15 -16 -16 -17 -17 -18 -18 -20 -21 -24 -26 -27 -25 -27 -30 -29 -34 -12 -14 -11 -11 -9
0 2 4 5 5 7 7 7 7 6 5 5 3 1 -1 -2 -3 -6 -9 -12 -14 -14 -15 -16 -16 -17 -17 -18 -20 -22 -24 -26 -30 -32 -29 -10 -9 -10 -11 -12 -11 -11 -9
-0 1 3 3 4 5 6 6 6 5 4 3 2 1 -1 -2 -5 -8 -9 -11 -13 -14 -14 -15 -15 -16 -17 -18 -20 -22 -25 -28 -30 -30 -20 -22 -15 -12 -9 -10 -10 -10 -11
-1 -1 1 2 3 4 5 5 5 5 4 3 2 0 -0 -1 -3 -7 -8 -10 -12 -13 -13 -14 -15 -15 -16 -18 -20 -23 -25 -29 -31 -32 -21 -15 -17 -12 -16 -11 -9 -10 -13
-2 -1 -0 1 2 3 4 3 4 4 3 3 1 1 0 -0 -1 -3 -6 -9 -10 -10 -12 -13 -14 -15 -16 -17 -21 -23 -26 -28 -30 -28 -31 -12 -11 -13 -11 -11 -11 -11 -10
-3 -2 -1 0 -1 1 2 3 4 3 3 3 1 0 -1 -2 -1 -3 -6 -7 -9 -11 -12 -12 -13 -12 -15 -18 -20 -23 -26 -26 -26 -20 -22 -15 -13 -19 -16 -11 -11 -11 -12
-6 -3 -1 -3 -1 1 0 -0 2 2 2 2 2 1 -0 -0 -0 -3 -5 -7 -8 -10 -11 -11 -8 -12 -16 -18 -19 -22 -24 -24 -24 -24 -20 -22 -28 -15 -12 -12 -12 -12 -11
-8 -5 -0 -1 -2 -2 -0 1 -0 1 2 2 2 1 0 0 -1 -2 -4 -6 -8 -9 -7 -6 -10 -13 -15 -16 -17 -20 -22 -19 -16 -20 -16 -20 -30 -18 -12 -12 -11 -11 -12
-8 -6 -3 -0 -1 -1 -0 1 1 1 1 1 1 1 1 1 -1 -2 -3 -6 -6 -3 -5 -7 -11 -13 -14 -14 -15 -19 -21 -19 -20 -23 -16 -22 -26 -12 -12 -15 -12 -12 -13
-8 -6 -4 -2 0 -2 -2 -1 1 1 1 0 1 1 1 0 -1 -2 -4 -5 -0 -3 -3 -8 -10 -12 -13 -15 -17 -18 -19 -20 -25 -30 -32 -28 -23 -12 -21 -13 -12 -12 -12
-7 -5 -5 -3 -1 1 -0 -1 -0 0 1 0 -0 0 1 -0 -1 -2 -4 -1 -2 -1 -4 -7 -9 -12 -13 -15 -16 -14 -13 -19 -26 -30 -31 -31 -29 -34 -34 -26 -12 -11 -11
-7 -6 -5 -3 -2 -1 0 0 0 -0 0 -0 -0 -0 -0 -1 -2 -3 -2 -1 -1 -3 -5 -7 -8 -11 -12 -15 -16 -15 -16 -20 -25 -26 -29 -28 -32 -30 -32 -31 -28 -28 -26
-5 -4 -3 -2 -2 -1 -0 0 0 1 0 -0 -1 -1 -0 -2 -4 -3 -2 -1 -3 -4 -5 -6 -7 -7 -10 -8 -13 -14 -16 -19 -23 -26 -25 -26 -27 -29 -26 -16 -18 -17 -25
-2 -2 -2 -1 -1 -1 -1 1 1 1 1 -0 -1 -1 -2 -2 -2 -2 -1 -3 -4 -4 -5 -5 -6 -7 -8 -10 -12 -12 -14 -16 -23 -27 -29 -26 -21 -22 -26 -16 -13 -14 -14
-4 -3 -2 -1 -1 -1 -0 1 1 1 0 -0 -1 -1 -2 -2 -3 -3 -2 -3 -3 -4 -4 -5 -7 -8 -8 -9 -11 -12 -14 -14 -14 -14 -22 -24 -20 -22 -27 -26 -14 -13 -14
-2 -3 -1 -1 -1 -0 0 1 1 1 0 -0 -1 -2 -3 -3 -3 -3 -3 -3 -4 -4 -6 -7 -7 -8 -9 -9 -11 -13 -13 -14 -14 -13 -13 -20 -23 -25 -28 -29 -18 -15 -15
-2 -2 -1 -1 -1 -2 -0 1 1 1 0 -1 -2 -3 -3 -3 -3 -2 -3 -3 -4 -6 -6 -7 -8 -8 -9 -11 -13 -14 -14 -14 -13 -13 -13 -13 -18 -24 -29 -30 -26 -24 -28
-2 -2 -1 -0 -0 -0 0 0 0 -0 -1 -1 -2 -3 -3 -3 -3 -3 -4 -5 -5 -6 -7 -8 -8 -9 -10 -11 -13 -14 -17 -17 -13 -12 -13 -14 -19 -26 -29 -28 -27 -28 -28
-2 -2 -1 -1 -1 1 1 -0 -1 -1 -2 -2 -3 -4 -4 -3 -3 -4 -5 -5 -6 -7 -7 -8 -9 -10 -11 -12 -13 -16 -23 -25 -15 -13 -14 -20 -24 -27 -22 -22 -27 -27 -16
-2 -2 -2 -2 -1 -1 -1 -1 -2 -2 -2 -3 -4 -4 -4 -4 -5 -5 -5 -6 -7 -7 -8 -9 -10 -11 -11 -11 -14 -19 -19 -17 -17 -16 -16 -20 -21 -19 -19 -17 -16 -17 -17
-2 -2 -2 -1 -2 -2 -2 -2 -3 -3 -4 -4 -4 -4 -4 -5 -5 -5 -6 -6 -7 -9 -10 -10 -10 -10 -11 -12 -12 -13 -13 -13 -14 -15 -15 -15 -15 -15 -16 -16 -16 -17 -17
-2 -2 -2 -3 -2 -2 -2 -3 -3 -4 -4 -4 -4 -4 -5 -5 -5 -6 -7 -8 -10 -10 -11 -12 -12 -13 -13 -17 -20 -19 -18 -16 -18 -16 -14 -14 -14 -15 -15 -16 -16 -17 -17

GFSMW_850_dewp_195.txt.gz
Dewpoint
0 5 9 12 12 12 12 11 11 10 9 7 6 4 1 -1 -4 -7 -9 -12 -14 -16 -17 -18 -20 -20 -17 -17 -21 -21 -21 -16 -5 -2 -2 -2 -5 -6 -5 -6 -7 -9 -10
-1 2 8 11 12 12 12 11 11 10 9 7 6 4 2 -0 -4 -5 -9 -12 -14 -16 -17 -18 -19 -20 -17 -20 -21 -18 -12 -20 -18 -2 -4 -3 -2 -3 -4 -6 -8 -15 -9
-2 -0 6 10 10 11 12 11 10 9 9 7 6 4 2 1 -1 -3 -7 -11 -14 -16 -17 -18 -19 -19 -19 -20 -20 -20 -15 -11 -24 -19 -3 -7 -9 -4 -4 -6 -7 -10 -7
-2 -2 2 7 10 10 11 11 10 9 9 7 6 4 3 1 -0 -3 -4 -8 -13 -16 -17 -17 -18 -19 -18 -18 -20 -20 -20 -11 -16 -25 -25 -14 -7 -10 -6 -6 -6 -8 -8
0 0 -0 5 8 9 10 11 10 9 8 7 6 5 3 2 1 0 -1 -4 -11 -15 -16 -17 -18 -18 -17 -18 -19 -20 -21 -19 -6 -7 -15 -17 -16 -19 -10 -12 -7 -8 -7
0 1 2 3 8 8 9 10 10 9 8 7 5 4 4 3 1 0 0 -2 -7 -11 -14 -16 -16 -16 -15 -17 -18 -20 -21 -22 -20 -21 -18 -9 -8 -9 -10 -11 -10 -10 -8
-1 0 2 3 5 7 8 10 10 9 8 7 6 5 4 3 1 0 0 -0 -4 -8 -12 -13 -13 -13 -15 -17 -18 -20 -21 -23 -24 -26 -21 -25 -22 -14 -12 -9 -9 -9 -10
-2 -1 1 2 3 4 7 8 8 8 8 7 7 5 4 3 2 1 0 -1 -2 -4 -7 -10 -9 -11 -14 -15 -17 -19 -20 -22 -24 -24 -16 -17 -24 -27 -23 -10 -8 -8 -10
-3 -2 -0 2 2 3 5 6 7 7 7 7 6 5 4 3 2 1 0 -1 -2 -1 -4 -6 -6 -8 -12 -16 -18 -16 -18 -22 -21 -22 -21 -14 -15 -14 -14 -17 -13 -9 -8
-6 -4 -1 0 1 2 3 5 5 6 6 6 5 5 4 3 2 1 0 -1 -2 -2 -5 -7 -7 -9 -13 -15 -15 -16 -19 -21 -17 -11 -16 -10 -8 -10 -11 -9 -10 -10 -10
-8 -9 -5 -0 1 1 1 3 4 5 5 5 5 4 4 3 2 1 0 -1 -2 -3 -5 -6 -7 -9 -13 -13 -15 -13 -19 -17 -16 -12 -11 -10 -11 -11 -10 -10 -10 -10 -10
-8 -9 -8 -2 1 1 2 2 2 3 4 4 4 4 4 3 2 1 0 -1 -1 -3 -5 -7 -8 -12 -8 -12 -15 -16 -19 -14 -13 -14 -11 -12 -13 -11 -10 -10 -10 -10 -10
-9 -9 -8 -6 -3 1 2 1 0 1 3 3 3 4 3 3 2 1 0 -1 -1 -3 -5 -8 -9 -5 -7 -11 -11 -15 -19 -16 -14 -13 -9 -11 -11 -10 -11 -10 -10 -11 -12
-10 -11 -8 -6 -5 -2 1 2 2 2 1 2 2 3 3 3 2 1 0 -1 -1 -4 -6 -8 -4 -2 -5 -6 -14 -17 -20 -19 -19 -17 -13 -12 -12 -10 -9 -10 -10 -11 -11
-12 -10 -9 -7 -6 -4 -2 0 1 2 2 2 2 2 2 2 2 1 0 -0 -2 -4 -6 -5 -1 -3 -2 -8 -15 -18 -18 -16 -21 -25 -25 -24 -27 -22 -21 -19 -10 -10 -10
-10 -10 -8 -7 -6 -4 -3 -2 0 1 2 2 1 1 1 2 2 1 0 -1 -2 -4 -4 -1 -1 -2 -5 -12 -16 -16 -18 -9 -20 -24 -28 -28 -31 -33 -33 -34 -34 -33 -32
-8 -8 -5 -4 -3 -3 -2 -1 -1 1 2 1 1 1 1 1 2 1 -1 -2 -2 -2 -2 -2 -2 -4 -8 -11 -10 -16 -6 -17 -20 -20 -18 -14 -13 -24 -28 -24 -25 -21 -22
-2 -5 -5 -4 -3 -2 -1 -1 -1 -0 1 2 1 1 1 1 1 -0 -2 -3 -3 -2 -3 -3 -4 -4 -5 -5 -8 -6 -14 -18 -20 -23 -19 -16 -12 -13 -23 -26 -23 -16 -13
-4 -4 -3 -4 -4 -3 -2 -1 -1 -1 1 1 1 0 0 0 -0 -1 -2 -3 -3 -3 -3 -3 -4 -5 -5 -7 -7 -8 -11 -14 -15 -15 -21 -16 -11 -16 -27 -28 -27 -15 -13
-4 -3 -3 -4 -4 -4 -2 -1 -1 0 1 1 1 1 -0 -0 -1 -2 -3 -3 -3 -3 -3 -4 -5 -6 -7 -7 -7 -8 -10 -12 -13 -12 -12 -14 -18 -24 -26 -28 -29 -15 -13
-6 -2 -4 -3 -4 -3 -1 0 0 1 2 1 1 0 -1 -1 -1 -2 -4 -3 -3 -4 -5 -5 -7 -7 -7 -7 -8 -9 -11 -12 -13 -12 -12 -12 -14 -17 -23 -30 -29 -17 -27
-9 -5 -5 -4 -3 -0 0 0 0 0 1 1 1 -0 -1 -1 -2 -3 -4 -4 -4 -5 -6 -6 -7 -8 -8 -8 -8 -10 -12 -12 -12 -11 -11 -12 -14 -16 -25 -28 -28 -27 -27
-10 -7 -5 -3 -1 -0 1 1 1 0 0 -0 -0 -1 -2 -3 -3 -4 -4 -5 -6 -6 -6 -7 -8 -9 -9 -9 -10 -12 -13 -15 -15 -11 -12 -13 -14 -21 -22 -16 -22 -19 -15
-9 -7 -4 -2 -1 -1 -1 -1 -1 -1 -1 -2 -2 -3 -4 -5 -5 -5 -6 -5 -6 -6 -7 -7 -8 -9 -10 -11 -12 -12 -14 -20 -22 -13 -14 -17 -19 -18 -15 -15 -14 -15 -15
-7 -3 -1 -1 -1 -1 -2 -2 -2 -2 -3 -3 -4 -5 -5 -5 -6 -5 -5 -5 -6 -6 -6 -7 -8 -9 -10 -10 -12 -13 -12 -13 -13 -13 -13 -13 -13 -13 -14 -14 -15 -15 -16
-4 -1 -1 -1 -1 -2 -2 -2 -3 -4 -4 -5 -5 -6 -6 -6 -6 -6 -6 -6 -6 -7 -8 -8 -8 -9 -10 -10 -11 -12 -12 -13 -13 -14 -14 -13 -13 -13 -14 -14 -15 -15 -15

GFSMW_850_dewp_198.txt.gz
Dewpoint
-2 1 5 9 12 13 14 13 12 12 11 10 9 7 5 3 2 -1 -7 -12 -12 -12 -14 -14 -14 -18 -17 -17 -18 -18 -13 -4 -5 -6 -5 -5 -8 -8 -7 -7 -8 -11 -16
-2 -2 5 9 11 12 13 13 12 11 11 10 8 5 4 2 1 -2 -8 -10 -12 -13 -14 -14 -15 -18 -17 -18 -18 -18 -17 -13 -8 -5 -2 -1 -1 -1 -7 -6 -9 -13 -13
-2 -2 3 8 11 12 13 12 12 12 11 10 8 5 4 2 1 -1 -4 -7 -10 -13 -15 -15 -16 -18 -17 -15 -18 -17 -14 -15 -14 -4 -3 -4 -3 -1 -3 -6 -8 -13 -14
-1 -1 -1 8 11 12 12 12 12 11 11 10 9 5 4 2 1 -0 -2 -6 -9 -12 -14 -15 -15 -17 -17 -16 -19 -17 -12 -9 -17 -13 -7 -5 -4 -6 -3 -4 -5 -8 -14
1 1 1 8 10 12 12 12 12 11 11 10 8 6 4 3 2 1 -1 -3 -7 -10 -14 -14 -15 -16 -16 -17 -18 -18 -15 -8 -10 -19 -22 -22 -20 -13 -8 -5 -5 -6 -9
1 1 1 4 11 11 11 12 12 11 11 10 8 6 4 3 2 1 0 -2 -4 -8 -12 -14 -14 -15 -15 -16 -16 -17 -17 -13 -8 -8 -9 -12 -13 -12 -18 -13 -8 -7 -7
-1 1 2 3 8 10 11 11 11 11 10 10 9 7 5 4 3 3 1 0 -1 -6 -10 -13 -12 -14 -14 -15 -15 -17 -19 -19 -15 -15 -15 -13 -12 -11 -12 -12 -9 -9 -8
-3 -2 1 2 3 7 9 10 10 10 10 10 9 9 6 4 4 2 2 1 0 -3 -8 -9 -9 -12 -13 -12 -14 -17 -18 -19 -20 -20 -19 -20 -23 -23 -21 -16 -15 -9 -9
-6 -3 -2 -3 2 3 5 8 9 10 10 9 9 8 6 5 5 3 2 1 0 -1 -3 -7 -7 -8 -9 -11 -13 -15 -17 -18 -19 -19 -19 -20 -22 -25 -22 -19 -18 -11 -8
-6 -7 -5 -2 -4 -0 3 4 7 8 8 8 8 8 7 6 4 4 2 1 1 -0 -1 -2 -4 -5 -6 -10 -11 -14 -15 -16 -18 -20 -20 -18 -26 -24 -21 -24 -24 -16 -11
-5 -6 -8 -4 -2 -3 -1 2 4 6 6 7 8 7 7 6 6 4 3 2 1 0 -0 -1 -3 -5 -6 -8 -10 -13 -14 -17 -18 -19 -20 -19 -25 -21 -22 -25 -24 -14 -11
-5 -6 -6 -7 -2 -2 -2 -3 0 1 5 5 6 6 6 6 5 4 3 2 1 -0 -1 -1 -2 -3 -3 -6 -11 -13 -15 -18 -17 -18 -18 -24 -24 -21 -16 -16 -12 -11 -10
-4 -6 -6 -3 -5 -3 -1 -0 -1 -2 -0 3 5 5 6 5 5 4 3 2 0 -0 -1 -1 -2 -2 -4 -9 -11 -13 -15 -14 -12 -18 -24 -23 -25 -26 -13 -12 -11 -10 -11
-4 -6 -8 -8 -5 -4 -4 -0 2 1 -0 0 3 4 5 4 4 4 3 1 0 -1 -1 -2 -2 -4 -7 -10 -11 -14 -10 -3 -10 -11 -23 -19 -12 -17 -9 -10 -11 -11 -11
-10 -12 -10 -9 -8 -6 -5 -3 -1 1 2 1 1 2 4 4 4 3 2 1 0 -0 -1 -2 -3 -5 -6 -7 -10 -7 -6 -6 -9 -18 -16 -5 -8 -22 -18 -16 -17 -15 -12
-14 -13 -9 -9 -8 -4 -3 -2 -2 0 1 2 2 2 3 3 4 3 2 1 0 -0 -1 -2 -4 -6 -5 -5 -5 -4 -5 -7 -9 -9 -4 -8 -27 -28 -29 -22 -29 -31 -26
-4 -2 -2 -4 -5 -4 -3 -2 -2 -1 -0 1 2 2 2 2 3 3 2 1 0 -0 -1 -2 -4 -4 -4 -4 -3 -4 -10 -7 -5 -5 -11 -24 -25 -29 -31 -32 -32 -33 -32
-3 -3 -3 -4 -3 -3 -4 -3 -2 -1 -1 1 2 2 2 2 3 3 2 1 0 -0 -1 -2 -4 -4 -4 -3 -5 -6 -5 -6 -6 -12 -9 -13 -18 -22 -26 -28 -30 -30 -24
-7 -6 -4 -3 -1 -2 -4 -4 -2 -1 -1 0 2 2 1 1 2 2 2 1 -0 -2 -2 -3 -4 -4 -4 -5 -6 -5 -7 -7 -8 -9 -15 -16 -15 -20 -23 -26 -29 -30 -27
-10 -9 -7 -3 -1 -2 -4 -4 -2 -0 0 0 2 2 1 1 1 1 1 0 -1 -2 -4 -4 -4 -4 -5 -6 -6 -7 -7 -8 -8 -9 -11 -18 -17 -18 -22 -26 -28 -31 -26
-10 -6 -6 -7 -2 -2 -4 -1 -0 -0 0 1 1 2 1 1 1 1 1 -0 -2 -3 -4 -4 -5 -5 -5 -6 -7 -7 -8 -8 -10 -12 -12 -14 -14 -15 -17 -22 -28 -31 -30
-11 -5 -7 -10 -5 -4 -2 0 1 1 1 0 1 1 1 1 0 1 -0 -1 -3 -4 -5 -6 -6 -6 -6 -7 -7 -8 -8 -10 -12 -12 -12 -12 -12 -13 -15 -20 -28 -28 -29
-11 -5 -9 -8 -4 -0 -1 -1 -0 0 1 1 0 1 0 0 -0 -1 -2 -4 -5 -5 -6 -6 -7 -7 -7 -8 -8 -9 -9 -11 -12 -13 -11 -11 -13 -13 -15 -24 -20 -18 -17
-7 -5 -9 -7 -2 -1 -1 -1 -2 -1 -1 -1 -2 -2 -2 -2 -3 -3 -4 -4 -5 -6 -6 -6 -7 -7 -7 -8 -8 -9 -10 -13 -14 -14 -12 -12 -12 -14 -19 -15 -15 -15 -15
-7 -9 -7 -3 -1 -1 -1 -1 -2 -2 -2 -3 -3 -3 -3 -4 -5 -5 -5 -5 -5 -5 -5 -6 -7 -7 -7 -7 -8 -11 -12 -13 -15 -18 -18 -15 -16 -14 -13 -13 -13 -13 -14
-8 -7 -3 -1 -1 -1 -1 -2 -2 -3 -3 -4 -4 -5 -5 -6 -6 -6 -6 -6 -5 -5 -6 -6 -6 -7 -8 -10 -12 -13 -16 -14 -16 -15 -13 -14 -13 -12 -13 -14 -14 -15 -14

GFSMW_850_dewp_204.txt.gz
Dewpoint
-2 -3 -2 3 7 12 12 12 13 12 13 13 13 13 13 13 12 12 11 11 10 9 8 2 -4 -4 -8 -10 -11 -11 -14 -8 -5 -5 -2 -2 -3 -5 -7 -8 -13 -13 -16
1 1 2 12 11 7 9 12 12 13 12 12 13 13 13 13 12 12 12 11 11 9 7 1 -2 -5 -8 -9 -10 -15 -12 -5 -4 -4 -3 -3 -3 -3 -3 -6 -9 -11 -14
-1 2 5 7 13 12 10 11 12 12 12 13 13 13 13 12 12 11 11 11 10 9 7 3 -2 -6 -8 -9 -12 -14 -11 -7 -3 -3 -6 -3 -4 -3 -3 -4 -6 -7 -9
-2 -4 1 8 10 14 14 13 12 13 13 13 13 13 12 12 12 11 10 10 9 7 5 2 -2 -5 -7 -7 -11 -10 -8 -7 -6 -3 -4 -6 -6 -2 -3 -4 -5 -6 -7
-1 -0 0 2 11 12 14 14 14 13 13 13 13 13 12 13 12 11 10 9 7 7 5 2 -0 -4 -6 -6 -8 -9 -6 -5 -6 -5 -4 -5 -3 -3 -4 -4 -5 -6 -6
-1 -2 -1 1 0 8 13 13 13 13 13 13 13 12 12 12 12 11 10 8 6 6 4 2 -0 -3 -4 -4 -7 -7 -6 -4 -4 -5 -6 -6 -4 -3 -5 -6 -5 -6 -6
-1 -3 -2 -1 1 2 5 11 12 13 12 12 12 12 12 12 12 11 10 8 6 5 4 1 -1 -2 -3 -3 -5 -4 -5 -5 -5 -4 -4 -5 -3 -4 -4 -6 -7 -5 -6
-3 -3 -1 -1 -0 2 2 2 5 10 11 12 11 11 11 11 10 9 9 8 7 5 5 3 0 -2 -4 -4 -4 -2 -2 -3 -4 -4 -5 -8 -8 -9 -10 -12 -11 -5 -6
-8 -10 -7 -3 3 4 2 3 4 3 9 10 10 10 10 9 10 9 8 7 6 5 4 4 2 -0 -1 -2 -2 -2 -2 -2 -2 -2 -3 -5 -6 -7 -8 -8 -7 -9 -7
-9 -12 -12 -6 -3 -0 0 1 2 5 3 6 9 9 10 9 8 7 6 6 5 4 4 4 3 1 0 -0 -1 -2 -2 -2 -2 -2 -3 -4 -4 -6 -6 -4 -7 -8 -10
-8 -13 -10 -5 -3 -3 -0 -0 1 2 2 3 2 3 8 7 8 8 6 6 5 4 4 3 4 3 2 1 0 -1 -1 0 -3 -4 -4 -3 -6 -6 -7 -10 -16 -15 -15
-6 -12 -11 -7 -4 -4 -3 -5 -2 1 2 1 3 4 2 5 7 7 7 6 6 5 5 4 3 3 2 2 1 1 0 -1 -1 -1 0 -0 -5 -7 -7 -17 -12 -6 -3
-6 -12 -12 -10 -8 -6 -6 -6 -5 -2 -1 0 1 1 1 1 5 4 4 7 6 6 5 4 4 3 3 3 2 1 0 -0 0 -0 -0 -1 -2 -1 -12 -13 -5 -4 -12
-13 -10 -9 -9 -7 -3 -5 -7 -7 -5 -4 -1 1 0 0 1 3 1 6 7 7 6 5 5 4 3 2 2 1 0 0 -0 -0 -1 -2 -2 -3 -8 -13 -8 -6 -5 -9
-5 -4 -3 -3 -4 -4 -3 -3 -2 -1 -2 -3 1 1 1 1 1 1 5 7 6 6 5 5 4 2 1 1 1 0 -0 -2 -1 -1 -2 -3 -5 -10 -11 -8 -12 -5 -7
-6 -7 -7 -7 -3 -4 -4 -3 -3 -3 -1 1 -0 0 2 2 2 1 2 4 5 6 5 4 3 2 1 1 0 -0 -1 -1 -1 -2 -3 -6 -10 -12 -14 -9 -5 -4 -4
-9 -10 -9 -9 -9 -8 -6 -6 -5 -2 -1 0 0 0 1 2 2 2 2 4 5 5 5 4 3 2 1 1 0 -0 -1 -1 -3 -7 -9 -11 -11 -6 -5 -5 -5 -6 -8
-11 -13 -14 -12 -11 -9 -9 -8 -6 -5 -3 -1 0 -1 -2 -3 0 2 2 3 4 4 4 3 2 1 1 1 0 -1 -2 -3 -8 -10 -11 -8 -5 -5 -5 -6 -7 -7 -10
-12 -10 -11 -12 -13 -11 -11 -6 -6 -2 -4 -2 -1 -2 -3 -3 -3 2 2 3 4 4 3 3 2 1 1 0 -0 -1 -3 -5 -10 -10 -6 -5 -6 -6 -6 -6 -7 -7 -8
-12 -10 -12 -13 -12 -13 -14 -6 -7 -3 -2 -2 -1 -2 -3 -5 -1 2 3 3 3 3 2 2 1 1 0 -1 -2 -3 -3 -6 -9 -5 -5 -6 -6 -7 -7 -8 -9 -18 -23
-10 -10 -11 -11 -11 -12 -12 -7 -6 -4 -2 -2 -2 -3 -5 -5 -1 2 3 3 3 3 3 1 1 -0 -2 -2 -3 -3 -4 -5 -5 -6 -7 -7 -7 -8 -8 -15 -20 -23 -26
-9 -9 -9 -8 -9 -11 -12 -7 -4 -3 -2 -2 -2 -3 -4 -2 0 2 3 3 3 3 1 0 -1 -3 -3 -3 -4 -4 -5 -5 -6 -6 -7 -7 -8 -9 -15 -14 -15 -19 -27
-8 -8 -8 -7 -8 -6 -5 -3 -5 -4 -3 -2 -2 -2 -2 -1 -0 1 2 2 1 -0 -1 -3 -4 -4 -4 -5 -5 -6 -6 -7 -7 -7 -7 -8 -10 -13 -13 -13 -15 -23 -25
-7 -6 -6 -6 -5 -6 -5 -4 -2 -2 -2 -2 -2 -2 -1 -1 -1 -0 -0 -1 -2 -3 -4 -4 -4 -5 -6 -6 -6 -7 -7 -7 -8 -8 -9 -11 -12 -12 -12 -13 -16 -20 -18
-8 -7 -5 -4 -3 -4 -4 -2 -2 -3 -2 -2 -2 -2 -2 -3 -2 -2 -3 -3 -3 -3 -3 -3 -4 -5 -6 -6 -7 -7 -7 -8 -8 -8 -12 -12 -12 -11 -12 -13 -17 -15 -16
-5 -4 -4 -4 -2 -1 -3 -3 -3 -2 -2 -2 -2 -3 -4 -3 -4 -4 -5 -5 -4 -4 -4 -3 -4 -5 -5 -6 -6 -7 -8 -8 -9 -11 -12 -13 -12 -13 -15 -17 -14 -14 -15